Content
SEND FEEDBACK

Daily
Averages
Monthly
Summary
Mexico

MEXICALI - AEROPUERTO, BAJA CALIFORNIA


Home > North America > Mexico > Baja California
Elevation: 10 feet     Latitude: 32 39N     Longitude: 115 28W

WEATHER
 
SELECT A DAY
Number of Records: 126,593;   Date Range: 1/1/95 - 9/22/14
 
SHARE

PRINT THIS DATA

[ ← Previous Day ]
WEATHER ALMANAC - JANUARY 31, 2013
[ Next Day → ]
[ °C ]   °F
Weather ElementAverageHighLow
Temperature59.5 °F71.6 °F (2:44 pm)42.8 °F (6:46 am)
Dewpoint38.8 °F42.8 °F (9:41 pm)33.8 °F (12:46 pm)
Humidity50.4 %87 % (6:46 am)27 % (12:46 pm)
Barometer30.18 in30.27 in (9:54 am)30.13 in (7:43 pm)
Wind Speed2.4 mph10.4 mph (12:46 pm)
Weather ElementAverage
Visibility10 mi
Wind DirectionSSE (141.5 °)

Weather ElementTotal
Precipitation---
Heating Degree Days7.8 (Base 65)
Growing Degree Days7.2 (Base 50)
Averaged from 20 records on January 31, 2013
WEATHER CONDITIONS BREAKOUT
WIND DIRECTION BREAKOUT
WEATHER BY HOUR - JANUARY 31, 2013
[ °C ]   °F
Local TimeTemperatureDewpointHumidityBarometerVisibilityWind DirectionWind SpeedGust SpeedPrecipitationEventsConditions
4:51 AM44.6 °F39.2 °F81 %30.22 in10.0 miWest (270°)4.6 mphClear
5:50 AM44.6 °F39.2 °F81 %30.22 in10.0 miNW (310°)4.6 mphScattered Clouds
6:46 AM42.8 °F39.2 °F87 %30.24 in10.0 miCalmScattered Clouds
8:01 AM48.2 °F41.0 °F76 %30.25 in10.0 miCalmScattered Clouds
8:48 AM53.6 °F41.0 °F62 %30.26 in10.0 miCalmMostly Cloudy
9:54 AM59.0 °F41.0 °F51 %30.27 in10.0 miCalmMostly Cloudy
10:42 AM64.4 °F35.6 °F34 %30.24 in10.0 miCalmMostly Cloudy
11:48 AM68.0 °F37.4 °F33 %30.21 in10.0 miCalmMostly Cloudy
12:46 PM69.8 °F33.8 °F27 %30.19 in10.0 miNorth (360°)10.4 mphMostly Cloudy
1:43 PM69.8 °F35.6 °F28 %30.15 in10.0 miNW (310°)4.6 mphMostly Cloudy
2:44 PM71.6 °F37.4 °F29 %30.14 in10.0 miCalmMostly Cloudy
3:50 PM71.6 °F35.6 °F27 %30.15 in10.0 miCalmPartly Cloudy
4:42 PM69.8 °F35.6 °F28 %30.14 in10.0 miCalmClear
5:41 PM64.4 °F39.2 °F40 %30.14 in10.0 miCalmClear
6:43 PM64.4 °F39.2 °F40 %30.15 in10.0 miWNW (290°)4.6 mphClear
7:43 PM60.8 °F41.0 °F48 %30.13 in10.0 miCalmClear
8:42 PM59.0 °F39.2 °F48 %30.14 in10.0 miWest (270°)4.6 mphClear
9:41 PM55.4 °F42.8 °F63 %30.16 in10.0 miNNW (330°)4.6 mphClear
10:43 PM55.4 °F41.0 °F58 %30.13 in10.0 miNNW (330°)5.8 mphClear
11:47 PM53.6 °F42.8 °F67 %30.13 in10.0 miNorth (360°)4.6 mphClear
Hourly data recorded from MMML, located miles away from Mexicali - Aeropuerto, Baja California







STORIES FROM OUR PARTNERS